Location: Csohesd
(46.2500°N, 22.6167°E)
Time: 06:15:40
(UTC+00:00)

Cosmos 1697 Rocket - Pass Details

Date: 21 October 2021
Orbit: 834 x 842 km, 71.0° (Epoch: 04 December)

Event Time Altitude Azimuth Distance (km) Brightness Sun altitude
Rises 16:13:59 0° 222° (SW) 3,386 6.7 -7.9°
Reaches altitude 10° 16:16:30 10° 228° (SW) 2,455 6.1 -8.3°
Maximum altitude 16:21:57 49° 303° (WNW) 1,080 3.7 -9.2°
Drops below altitude 10° 16:27:25 10° 18° (NNE) 2,465 4.9 -10.2°
Sets 16:29:58 0° 24° (NNE) 3,402 5.6 -10.6°
